FW9784 Weather Reports


Display with metric or nautical units.
time (UTC)temp
F
wind
direction
speed
MPH
gust
MPH
rain 1hr
in
rain 24hr
in
rain mn
in
humidity
%
barometer
mb
20260903062106 71 184 2.0 5.0 0.00 0.00 0.00 81 1013.9
20260903062056 71 189 2.0 7.0 0.00 0.00 0.00 81 1013.8
20260903062027 68 203 0.0 1.0 0.00 0.00 0.00 85 1014.3
20260903062018 68 203 0.0 0.0 0.00 0.00 0.00 86 1014.5
20260903061923 69 203 0.0 0.0 0.00 0.00 0.00 83 1014.2
20260903061914 71 203 0.0 1.0 0.00 0.00 0.00 81 1014.1
20260903061906 71 203 0.0 1.0 0.00 0.00 0.00 81 1014.1
20260903061813 71 203 1.0 4.0 0.00 0.00 0.00 80 1014.0
20260903061716 71 179 1.0 3.0 0.00 0.00 0.00 81 1013.8
20260903061520 68 203 0.0 0.0 0.00 0.00 0.00 86 1014.4
20260903061515 71 172 2.0 7.0 0.00 0.00 0.00 80 1013.8
20260903061442 71 210 2.0 6.0 0.00 0.00 0.00 80 1013.7
20260903061334 71 207 3.0 6.0 0.00 0.00 0.00 80 1013.7
20260903061312 71 0 3.0 7.0 0.00 0.00 0.00 79 1013.8
20260903061300 71 207 3.0 8.0 0.00 0.00 0.00 79 1013.8
20260903061116 71 0 3.0 8.0 0.00 0.00 0.00 78 1013.7
20260903061109 68 203 0.0 0.0 0.00 0.00 0.00 85 1014.3
20260903061040 68 203 0.0 1.0 0.00 0.00 0.00 85 1014.3
20260903061020 68 203 0.0 0.0 0.00 0.00 0.00 86 1014.4
20260903060935 68 203 0.0 1.0 0.00 0.00 0.00 85 1014.3
20260903060649 68 203 0.0 0.0 0.00 0.00 0.00 86 1014.3
20260903060106 70 203 0.0 0.0 0.00 0.00 0.00 83 1014.2
20260903060059 70 203 0.0 0.0 0.00 0.00 0.00 82 1014.1
20260903060050 71 203 0.0 0.0 0.00 0.00 0.00 81 1014.1
20260903060026 68 203 0.0 0.0 0.00 0.00 0.00 86 1014.4
20260903055541 68 203 0.0 0.0 0.00 0.00 0.00 85 1014.3
20260903053037 68 203 0.0 1.0 0.00 0.00 0.00 85 1014.3
20260903052609 68 203 0.0 1.0 0.00 0.00 0.00 84 1014.3
20260903052211 69 203 0.0 2.0 0.00 0.00 0.00 84 1014.3
20260903051837 71 200 1.0 5.0 0.00 0.00 0.00 80 1013.8
20260903051536 69 203 0.0 2.0 0.00 0.00 0.00 84 1014.3
20260903051200 69 203 0.0 2.0 0.00 0.00 0.00 84 1014.2
20260903050511 69 203 0.0 0.0 0.00 0.00 0.00 84 1014.2
20260903050112 69 203 0.0 0.0 0.00 0.00 0.00 83 1014.2
20260903045949 71 189 2.0 7.0 0.00 0.00 0.00 81 1013.8
20260903045856 71 262 3.0 7.0 0.00 0.00 0.00 81 1013.8
20260903045530 69 203 0.0 0.0 0.00 0.00 0.00 83 1014.2
20260903045118 69 203 0.0 0.0 0.00 0.00 0.00 83 1014.2
20260903044817 69 203 0.0 0.0 0.00 0.00 0.00 83 1014.3
20260903043608 70 203 0.0 0.0 0.00 0.00 0.00 82 1014.2
20260903043015 70 203 0.0 0.0 0.00 0.00 0.00 82 1014.1
20260903042613 70 203 0.0 0.0 0.00 0.00 0.00 81 1014.1
20260903041928 71 0 3.0 7.0 0.00 0.00 0.00 79 1013.8
20260903040821 71 203 0.0 1.0 0.00 0.00 0.00 80 1014.1
20260903040217 71 203 1.0 4.0 0.00 0.00 0.00 80 1013.9
20260903034501 71 184 2.0 5.0 0.00 0.00 0.00 81 1013.9
20260903032440 71 0 3.0 7.0 0.00 0.00 0.00 79 1013.8
20260903025939 71 0 3.0 9.0 0.00 0.00 0.00 77 1013.8
20260903025931 71 0 3.0 7.0 0.00 0.00 0.00 75 1013.8
20260903025851 71 0 3.0 9.0 0.00 0.00 0.00 78 1013.7
20260903025812 72 202 4.0 9.0 0.00 0.00 0.00 73 1013.8
20260903024517 71 206 3.0 7.0 0.00 0.00 0.00 76 1013.8
20260903024338 71 235 3.0 6.0 0.00 0.00 0.00 76 1013.8
20260903023635 71 0 3.0 8.0 0.00 0.00 0.00 76 1013.9
20260903023242 71 0 3.0 8.0 0.00 0.00 0.00 76 1013.8
20260903022905 71 257 3.0 9.0 0.00 0.00 0.00 75 1013.8
20260903022745 72 199 4.0 9.0 0.00 0.00 0.00 75 1013.8
20260903022558 71 0 3.0 7.0 0.00 0.00 0.00 75 1013.8
20260903022233 71 257 3.0 9.0 0.00 0.00 0.00 75 1013.8
20260903021618 72 0 3.0 9.0 0.00 0.00 0.00 75 1013.8
20260903020128 72 0 4.0 11.0 0.00 0.00 0.00 73 1013.9
20260903020015 72 228 4.0 8.0 0.00 0.00 0.00 73 1013.8
20260903015847 72 221 4.0 11.0 0.00 0.00 0.00 73 1013.9
20260903015838 72 0 4.0 8.0 0.00 0.00 0.00 73 1013.8
20260903015719 72 228 4.0 9.0 0.00 0.00 0.00 73 1013.9
20260903014024 72 221 4.0 11.0 0.00 0.00 0.00 73 1013.9
20260903013502 72 200 4.0 10.0 0.00 0.00 0.00 74 1013.9
20260903012952 72 0 4.0 12.0 0.00 0.00 0.00 74 1014.0
20260903012503 72 0 4.0 12.0 0.00 0.00 0.00 74 1014.0
20260903011947 73 184 4.0 10.0 0.00 0.00 0.00 75 1014.0
20260903011459 73 229 4.0 10.0 0.00 0.00 0.00 75 1014.1
20260903010947 73 249 4.0 10.0 0.00 0.00 0.00 75 1014.0
20260903010449 73 0 4.0 10.0 0.00 0.00 0.00 74 1013.9
20260903005953 74 0 3.0 10.0 0.00 0.00 0.00 75 1014.0
20260903005455 74 0 3.0 10.0 0.00 0.00 0.00 76 1014.0
20260903004945 74 0 5.0 13.0 0.00 0.00 0.00 76 1014.0
20260903004456 74 0 5.0 13.0 0.00 0.00 0.00 75 1014.0
20260903003944 74 0 4.0 9.0 0.00 0.00 0.00 76 1014.0
20260903003444 74 0 4.0 11.0 0.00 0.00 0.00 76 1014.0
20260903002944 74 0 4.0 11.0 0.00 0.00 0.00 75 1014.0
20260903002507 74 0 5.0 11.0 0.00 0.00 0.00 75 1014.0
20260903002010 74 194 5.0 12.0 0.00 0.00 0.00 75 1014.0
20260903001514 75 223 4.0 12.0 0.00 0.00 0.00 75 1014.1
20260903000950 75 0 5.0 13.0 0.00 0.00 0.00 75 1014.2
20260903000650 75 0 5.0 13.0 0.00 0.00 0.00 73 1014.1
20260903000318 76 292 5.0 11.0 0.00 0.00 0.00 73 1014.4
20260903000257 76 183 5.0 11.0 0.00 0.00 0.00 74 1014.2
20260903000248 76 305 4.0 11.0 0.00 0.00 0.00 74 1014.3
20260903000107 75 0 6.0 16.0 0.00 0.00 0.00 74 1014.2
20260902235537 75 0 5.0 16.0 0.00 0.00 0.00 74 1014.2
20260902233520 76 278 5.0 11.0 0.00 0.00 0.00 72 1014.4
20260902233046 76 211 5.0 13.0 0.00 0.00 0.00 71 1014.5
20260902232955 76 231 5.0 10.0 0.00 0.00 0.00 73 1014.4
20260902232508 77 0 5.0 12.0 0.00 0.00 0.00 67 1014.9
20260902232457 77 207 5.0 11.0 0.00 0.00 0.00 69 1014.6
20260902232445 77 200 4.0 10.0 0.00 0.00 0.00 68 1014.6
20260902232437 76 254 5.0 10.0 0.00 0.00 0.00 73 1014.4
20260902232320 76 211 5.0 13.0 0.00 0.00 0.00 71 1014.5
20260902232306 77 213 5.0 12.0 0.00 0.00 0.00 70 1014.5
20260902232054 76 180 5.0 13.0 0.00 0.00 0.00 72 1014.5
20260902231000 76 180 5.0 13.0 0.00 0.00 0.00 71 1014.6
20260902230441 77 259 4.0 11.0 0.00 0.00 0.00 72 1014.4
20260902225648 77 272 5.0 12.0 0.00 0.00 0.00 70 1014.5
20260902225346 77 207 5.0 11.0 0.00 0.00 0.00 69 1014.6
20260902224128 78 296 4.0 10.0 0.00 0.00 0.00 69 1014.7
20260902223618 78 0 4.0 11.0 0.00 0.00 0.00 67 1014.7
20260902223202 77 0 5.0 12.0 0.00 0.00 0.00 67 1014.9
20260902223134 78 207 4.0 10.0 0.00 0.00 0.00 66 1015.1
20260902223113 78 223 4.0 11.0 0.00 0.00 0.00 65 1015.2
20260902223039 78 0 5.0 11.0 0.00 0.00 0.00 68 1015.0
20260902223013 77 0 5.0 11.0 0.00 0.00 0.00 66 1014.8
20260902222622 78 0 5.0 11.0 0.00 0.00 0.00 65 1014.8
20260902221518 77 223 5.0 12.0 0.00 0.00 0.00 66 1014.9
20260902220648 77 0 5.0 12.0 0.00 0.00 0.00 67 1014.9
20260902220228 78 229 4.0 11.0 0.00 0.00 0.00 66 1015.2
20260902220044 78 219 5.0 12.0 0.00 0.00 0.00 68 1015.0
20260902215538 78 313 5.0 12.0 0.00 0.00 0.00 68 1015.0
20260902213421 78 214 4.0 9.0 0.00 0.00 0.00 66 1015.2
20260902212921 78 0 4.0 9.0 0.00 0.00 0.00 65 1015.3
20260902212420 79 0 4.0 9.0 0.00 0.00 0.00 65 1015.4
20260902211923 78 192 4.0 9.0 0.00 0.00 0.00 67 1015.4
20260902211420 78 0 4.0 10.0 0.00 0.00 0.00 67 1015.4
20260902210940 78 217 4.0 10.0 0.00 0.00 0.00 66 1015.5
20260902210426 78 194 4.0 10.0 0.00 0.00 0.00 65 1015.6
20260902205918 77 256 5.0 11.0 0.00 0.00 0.00 65 1015.6
20260902205419 78 0 4.0 11.0 0.00 0.00 0.00 65 1015.6
20260902205149 78 263 4.0 9.0 0.00 0.00 0.00 66 1015.6
20260902204413 77 0 4.0 9.0 0.00 0.00 0.00 67 1015.6
20260902203931 77 0 4.0 10.0 0.00 0.00 0.00 67 1015.6
20260902203412 77 306 4.0 10.0 0.00 0.00 0.00 68 1015.6
20260902202919 77 0 4.0 9.0 0.00 0.00 0.00 68 1015.6
20260902202639 76 217 4.0 10.0 0.00 0.00 0.00 69 1015.8
20260902202513 77 0 5.0 10.0 0.00 0.00 0.00 68 1015.7
20260902201936 76 188 4.0 10.0 0.00 0.00 0.00 69 1015.7
20260902200914 76 254 5.0 11.0 0.00 0.00 0.00 69 1015.7
20260902200410 76 211 5.0 11.0 0.00 0.00 0.00 69 1015.8
20260902195914 76 265 5.0 11.0 0.00 0.00 0.00 70 1015.9
20260902195524 76 0 4.0 11.0 0.00 0.00 0.00 70 1015.9
20260902195427 76 230 5.0 11.0 0.00 0.00 0.00 70 1015.9
20260902194402 76 220 4.0 10.0 0.00 0.00 0.00 70 1015.9
20260902193916 76 207 5.0 10.0 0.00 0.00 0.00 71 1016.0
20260902193405 76 212 5.0 10.0 0.00 0.00 0.00 70 1016.0
20260902192901 76 0 5.0 10.0 0.00 0.00 0.00 71 1016.0
20260902192750 76 0 4.0 10.0 0.00 0.00 0.00 71 1016.2
20260902192523 76 254 4.0 9.0 0.00 0.00 0.00 72 1016.3
20260902192128 76 226 4.0 11.0 0.00 0.00 0.00 72 1016.2
20260902191824 75 190 4.0 11.0 0.00 0.00 0.00 72 1016.3
20260902191537 75 253 4.0 11.0 0.00 0.00 0.00 72 1016.2
20260902191311 75 0 4.0 9.0 0.00 0.00 0.00 72 1016.3
20260902185401 75 0 4.0 8.0 0.00 0.00 0.00 73 1016.4
20260902185257 76 178 4.0 10.0 0.00 0.00 0.00 73 1016.3
20260902185048 76 178 4.0 10.0 0.00 0.00 0.00 73 1016.3
20260902185018 76 202 4.0 9.0 0.00 0.00 0.00 72 1016.3
20260902184939 75 275 4.0 11.0 0.00 0.00 0.00 73 1016.3
20260902184404 75 0 5.0 11.0 0.00 0.00 0.00 73 1016.4
20260902184355 75 0 3.0 10.0 0.00 0.00 0.00 72 1016.4
20260902184350 76 184 3.0 7.0 0.00 0.00 0.00 72 1016.3
20260902184033 76 232 4.0 10.0 0.00 0.00 0.00 72 1016.3
20260902183032 76 178 4.0 10.0 0.00 0.00 0.00 73 1016.3
20260902181406 75 227 3.0 8.0 0.00 0.00 0.00 73 1016.2
20260902181358 76 209 3.0 7.0 0.00 0.00 0.00 72 1016.3
20260902181029 75 0 3.0 7.0 0.00 0.00 0.00 72 1016.2
20260902180123 75 271 4.0 8.0 0.00 0.00 0.00 72 1016.2
20260902175519 75 209 3.0 7.0 0.00 0.00 0.00 73 1016.1
20260902175418 75 163 3.0 6.0 0.00 0.00 0.00 73 1016.2
20260902174347 75 248 3.0 9.0 0.00 0.00 0.00 73 1016.2
20260902173851 75 295 3.0 9.0 0.00 0.00 0.00 72 1016.3
20260902173344 75 261 3.0 7.0 0.00 0.00 0.00 72 1016.2
20260902172849 75 202 3.0 7.0 0.00 0.00 0.00 72 1016.3
20260902172537 75 0 1.0 5.0 0.00 0.00 0.00 72 1016.2
20260902172420 75 142 2.0 7.0 0.00 0.00 0.00 72 1016.2
20260902171350 75 217 1.0 5.0 0.00 0.00 0.00 71 1016.1
20260902171259 75 227 2.0 6.0 0.00 0.00 0.00 70 1016.2
20260902170340 75 113 2.0 6.0 0.00 0.00 0.00 70 1016.1
20260902170236 73 106 1.0 4.0 0.00 0.00 0.00 73 1015.9
20260902170045 74 101 2.0 6.0 0.00 0.00 0.00 72 1015.9
20260902165850 74 123 2.0 4.0 0.00 0.00 0.00 71 1016.1
20260902165748 74 134 2.0 5.0 0.00 0.00 0.00 72 1015.9
20260902164945 74 232 2.0 6.0 0.00 0.00 0.00 71 1015.9
20260902164046 74 184 2.0 5.0 0.00 0.00 0.00 72 1016.0
20260902163606 72 83 1.0 4.0 0.00 0.00 0.00 75 1016.1
20260902163447 73 124 0.0 3.0 0.00 0.00 0.00 75 1015.9
20260902163401 74 119 2.0 4.0 0.00 0.00 0.00 72 1016.0
20260902163028 74 86 2.0 4.0 0.00 0.00 0.00 73 1016.0
20260902161650 72 83 0.0 0.0 0.00 0.00 0.00 75 1016.0
20260902161408 72 83 0.0 0.0 0.00 0.00 0.00 75 1016.0
20260902160830 72 83 2.0 4.0 0.00 0.00 0.00 76 1016.1
20260902160114 71 120 2.0 4.0 0.00 0.00 0.00 75 1016.1
20260902155837 71 120 2.0 4.0 0.00 0.00 0.00 75 1016.1
20260902155615 71 196 2.0 4.0 0.00 0.00 0.00 76 1016.0
20260902155300 71 189 1.0 4.0 0.00 0.00 0.00 77 1016.0
20260902154534 71 184 0.0 4.0 0.00 0.00 0.00 77 1016.1
20260902154344 71 103 0.0 2.0 0.00 0.00 0.00 78 1016.0
20260902153317 70 103 0.0 3.0 0.00 0.00 0.00 79 1016.1
20260902152931 70 118 1.0 3.0 0.00 0.00 0.00 80 1016.0
20260902152823 70 118 0.0 3.0 0.00 0.00 0.00 79 1016.0
20260902152019 69 123 1.0 3.0 0.00 0.00 0.00 82 1015.9
20260902151225 68 251 0.0 3.0 0.00 0.00 0.00 84 1015.9
20260902150315 66 251 0.0 0.0 0.00 0.00 0.00 88 1016.0
20260902150307 67 251 0.0 0.0 0.00 0.00 0.00 87 1016.0
20260902145307 65 251 0.0 0.0 0.00 0.00 0.00 89 1016.0
20260902145055 65 251 0.0 0.0 0.00 0.00 0.00 89 1016.1
20260902144314 64 251 0.0 0.0 0.00 0.00 0.00 90 1016.0
20260902143829 64 251 0.0 0.0 0.00 0.00 0.00 91 1015.9
20260902143812 64 251 0.0 0.0 0.00 0.00 0.00 91 1015.9
20260902143803 63 251 0.0 0.0 0.00 0.00 0.00 92 1016.0
20260902142747 62 251 0.0 0.0 0.00 0.00 0.00 92 1015.5
20260902142319 63 251 0.0 0.0 0.00 0.00 0.00 92 1015.9
20260902142016 63 251 0.0 0.0 0.00 0.00 0.00 92 1015.8
20260902141457 63 251 0.0 0.0 0.00 0.00 0.00 93 1015.7
20260902140831 62 251 0.0 0.0 0.00 0.00 0.00 93 1015.6
20260902135801 62 251 0.0 0.0 0.00 0.00 0.00 92 1015.3
20260902135301 61 251 0.0 0.0 0.00 0.00 0.00 91 1015.3
20260902134803 61 251 0.0 0.0 0.00 0.00 0.00 91 1015.3
20260902134305 61 251 0.0 0.0 0.00 0.00 0.00 91 1015.3
20260902133804 61 251 0.0 0.0 0.00 0.00 0.00 91 1015.2
20260902133301 61 251 0.0 0.0 0.00 0.00 0.00 91 1015.1
20260902132801 61 251 0.0 0.0 0.00 0.00 0.00 91 1015.1
20260902132301 61 251 0.0 0.0 0.00 0.00 0.00 91 1015.0
20260902131806 61 251 0.0 0.0 0.00 0.00 0.00 91 1015.0
20260902131301 61 251 0.0 0.0 0.00 0.00 0.00 91 1015.1
20260902130801 61 251 0.0 0.0 0.00 0.00 0.00 91 1015.0
20260902130301 61 251 0.0 0.0 0.00 0.00 0.00 91 1015.0
20260902125801 61 251 0.0 0.0 0.00 0.00 0.00 91 1015.0
20260902125301 62 251 0.0 0.0 0.00 0.00 0.00 91 1015.1
20260902124802 62 251 0.0 0.0 0.00 0.00 0.00 91 1015.2
20260902124304 62 251 0.0 0.0 0.00 0.00 0.00 91 1015.1
20260902123805 62 251 0.0 0.0 0.00 0.00 0.00 90 1015.2
20260902123303 62 251 0.0 0.0 0.00 0.00 0.00 90 1015.2
20260902122757 62 251 0.0 0.0 0.00 0.00 0.00 90 1015.2
20260902122640 62 251 0.0 0.0 0.00 0.00 0.00 90 1015.3
20260902121757 62 251 0.0 0.0 0.00 0.00 0.00 90 1015.3
20260902121254 62 251 0.0 0.0 0.00 0.00 0.00 90 1015.3
20260902120758 62 251 0.0 0.0 0.00 0.00 0.00 90 1015.3
20260902120305 62 251 0.0 0.0 0.00 0.00 0.00 89 1015.3
20260902115750 62 251 0.0 0.0 0.00 0.00 0.00 89 1015.4
20260902115253 62 251 0.0 0.0 0.00 0.00 0.00 89 1015.4
20260902114800 63 251 0.0 0.0 0.00 0.00 0.00 89 1015.4
20260902114749 62 251 0.0 0.0 0.00 0.00 0.00 89 1015.4
20260902113741 63 251 0.0 0.0 0.00 0.00 0.00 89 1015.3
20260902113639 63 251 0.0 0.0 0.00 0.00 0.00 89 1015.3
20260902112739 63 251 0.0 0.0 0.00 0.00 0.00 88 1015.3
20260902112721 63 251 0.0 0.0 0.00 0.00 0.00 88 1015.4
20260902111734 63 251 0.0 0.0 0.00 0.00 0.00 88 1015.4
20260902111234 63 251 0.0 0.0 0.00 0.00 0.00 88 1015.4
20260902110729 63 251 0.0 0.0 0.00 0.00 0.00 88 1015.4
20260902110236 64 251 0.0 0.0 0.00 0.00 0.00 88 1015.4
20260902105726 64 251 0.0 0.0 0.00 0.00 0.00 88 1015.4
20260902105231 64 251 0.0 0.0 0.00 0.00 0.00 87 1015.4
20260902104723 64 251 0.0 0.0 0.00 0.00 0.00 87 1015.4
20260902104220 64 251 0.0 0.0 0.00 0.00 0.00 87 1015.3
20260902103721 65 251 0.0 0.0 0.00 0.00 0.00 86 1015.4
20260902103220 65 251 0.0 0.0 0.00 0.00 0.00 87 1015.4
20260902102723 65 251 0.0 0.0 0.00 0.00 0.00 87 1015.4
20260902102617 65 251 0.0 0.0 0.00 0.00 0.00 87 1015.3
20260902101714 65 251 0.0 0.0 0.00 0.00 0.00 86 1015.4
20260902101213 66 251 0.0 0.0 0.00 0.00 0.00 86 1015.4
20260902100712 66 251 0.0 0.0 0.00 0.00 0.00 86 1015.4
20260902100209 66 251 0.0 0.0 0.00 0.00 0.00 85 1015.4
20260902095711 66 251 0.0 0.0 0.00 0.00 0.00 85 1015.5
20260902095204 66 251 0.0 0.0 0.00 0.00 0.00 85 1015.5
20260902094706 67 251 0.0 0.0 0.00 0.00 0.00 85 1015.5
20260902094208 67 251 0.0 0.0 0.00 0.00 0.00 84 1015.5
20260902093705 67 251 1.0 2.0 0.00 0.00 0.00 84 1015.5
20260902093206 67 251 1.0 3.0 0.00 0.00 0.00 84 1015.6
20260902092730 67 251 1.0 3.0 0.00 0.00 0.00 84 1015.6
20260902092242 67 205 1.0 2.0 0.00 0.00 0.00 83 1015.5
20260902092224 67 0 1.0 3.0 0.00 0.00 0.00 83 1015.5
20260902091225 67 205 1.0 3.0 0.00 0.00 0.00 83 1015.5
20260902090713 67 205 1.0 4.0 0.00 0.00 0.00 82 1015.4
20260902090225 67 223 1.0 7.0 0.00 0.00 0.00 82 1015.5
20260902085804 67 0 2.0 4.0 0.00 0.00 0.00 83 1015.5
20260902085728 67 223 2.0 7.0 0.00 0.00 0.00 82 1015.6
20260902084707 67 212 2.0 6.0 0.00 0.00 0.00 83 1015.5
20260902084217 68 221 2.0 6.0 0.00 0.00 0.00 84 1015.6
20260902083715 68 192 2.0 5.0 0.00 0.00 0.00 83 1015.5
20260902083219 68 190 2.0 5.0 0.00 0.00 0.00 83 1015.7
20260902082721 68 227 2.0 4.0 0.00 0.00 0.00 83 1015.6
20260902082204 68 232 2.0 6.0 0.00 0.00 0.00 83 1015.7
20260902082123 67 230 2.0 6.0 0.00 0.00 0.00 83 1015.6
20260902081223 67 200 1.0 3.0 0.00 0.00 0.00 83 1015.7
20260902080724 68 203 2.0 5.0 0.00 0.00 0.00 84 1015.5
20260902080712 67 218 1.0 3.0 0.00 0.00 0.00 84 1015.6
20260902080548 67 210 1.0 5.0 0.00 0.00 0.00 83 1015.5
20260902080543 67 253 1.0 5.0 0.00 0.00 0.00 84 1015.5
20260902080437 68 205 1.0 5.0 0.00 0.00 0.00 84 1015.5
20260902080426 68 203 2.0 5.0 0.00 0.00 0.00 84 1015.5
20260902080311 67 210 1.0 5.0 0.00 0.00 0.00 83 1015.5
20260902074205 68 171 2.0 5.0 0.00 0.00 0.00 84 1015.6
20260902073721 68 275 1.0 5.0 0.00 0.00 0.00 84 1015.5
20260902073206 68 180 0.0 3.0 0.00 0.00 0.00 84 1015.5
20260902072706 68 219 1.0 3.0 0.00 0.00 0.00 84 1015.4
20260902072158 68 219 2.0 4.0 0.00 0.00 0.00 83 1015.4
20260902071816 68 212 1.0 5.0 0.00 0.00 0.00 83 1015.3
20260902071748 68 229 2.0 5.0 0.00 0.00 0.00 83 1015.3
20260902070723 68 216 2.0 4.0 0.00 0.00 0.00 83 1015.3
20260902070203 68 0 2.0 6.0 0.00 0.00 0.00 83 1015.3
20260902065706 68 223 1.0 6.0 0.00 0.00 0.00 83 1015.2
20260902065158 68 0 1.0 3.0 0.00 0.00 0.00 83 1015.2
20260902064709 68 0 1.0 3.0 0.00 0.00 0.00 83 1015.2
20260902064209 68 0 1.0 3.0 0.00 0.00 0.00 83 1015.2